This is the latest recevied weather packets stored in our database for station/object VE6HFD-WX. If no packets are shown the sender has not sent any weather packets the latest 10 day(s).
| Time | Temp. | Humidity | Pressure | Rain* | Wind** | Luminosity | Snow |
|---|---|---|---|---|---|---|---|
| 1777395520 | 5.56° C | 51% | 1018.6 hPa | 0 mm | - | - | - |
| 1777395190 | 5.56° C | 51% | 1018.5 hPa | 0 mm | - | - | - |
| 1777394860 | 5° C | 50% | 1018.5 hPa | 0 mm | - | - | - |
| 1777394560 | 5° C | 52% | 1018.5 hPa | 0 mm | - | - | - |
| 1777394230 | 5° C | 55% | 1018.5 hPa | 0 mm | - | - | - |
| 1777393900 | 4.44° C | 56% | 1018.4 hPa | 0 mm | - | - | - |
| 1777393570 | 4.44° C | 55% | 1018.4 hPa | 0 mm | - | - | - |
| 1777393270 | 3.89° C | 58% | 1018.5 hPa | 0 mm | - | - | - |
| 1777392940 | 3.89° C | 56% | 1018.4 hPa | 0 mm | - | - | - |
| 1777392610 | 3.89° C | 56% | 1018.4 hPa | 0 mm | - | - | - |
| 1777392280 | 3.33° C | 57% | 1018.4 hPa | 0 mm | - | - | - |
| 1777391950 | 3.33° C | 56% | 1018.5 hPa | 0 mm | - | - | - |
| 1777391650 | 2.78° C | 59% | 1018.4 hPa | 0 mm | - | - | - |
| 1777391320 | 2.78° C | 62% | 1018.4 hPa | 0 mm | - | - | - |
| 1777390990 | 2.22° C | 62% | 1018.4 hPa | 0 mm | - | - | - |
| 1777390690 | 2.22° C | 64% | 1018.4 hPa | 0 mm | - | - | - |
| 1777390360 | 1.67° C | 65% | 1018.4 hPa | 0 mm | - | - | - |
| 1777390060 | 1.67° C | 66% | 1018.5 hPa | 0 mm | - | - | - |
| 1777389730 | 1.11° C | 68% | 1018.5 hPa | 0 mm | - | - | - |
| 1777389430 | 1.11° C | 68% | 1018.4 hPa | 0 mm | - | - | - |
| 1777389100 | 1.11° C | 70% | 1018.5 hPa | 0 mm | - | - | - |
| 1777388770 | 0.56° C | 71% | 1018.5 hPa | 0 mm | - | - | - |
| 1777388470 | 0.56° C | 72% | 1018.5 hPa | 0 mm | - | - | - |
| 1777388140 | 0° C | 74% | 1018.5 hPa | 0 mm | - | - | - |
| 1777387810 | 0° C | 75% | 1018.5 hPa | 0 mm | - | - | - |
* Rain latest hour (hover to see other rain measurements)
** Current wind speed in m/s (hover to see current wind gust speed)